Location: Cerroniocc
(13.7547°S, 72.0222°W)
Time: 19:54:51
(UTC+00:00)

SL-24 R/B - RUBIN 2 - Pass Details

Date: 05 July 2020
Orbit: 568 x 1027 km, 64.6° (Epoch: 11 August)

Event Time Altitude Azimuth Distance (km) Brightness Sun altitude
Rises 23:19:59 0° 191° (S) 2,902 6.9 -11.4°
Reaches altitude 10° 23:22:17 10° 182° (S) 2,043 6.0 -11.9°
Maximum altitude 23:26:36 38° 113° (ESE) 1,053 4.2 -12.9°
Drops below altitude 10° 23:31:22 10° 45° (NE) 2,277 6.2 -14.0°
Sets 23:34:03 0° 38° (NE) 3,280 7.1 -14.6°
